Overview Statistics Trail Chart Weather Telemetry Raw packets
 

This is the latest recevied weather packets stored in our database for station/object K6CEG. If no packets are shown the sender has not sent any weather packets the latest 10 day(s).

<< 75 76 77 78 79 80 81 >>
Time Temp. Humidity Pressure Rain* Wind** Luminosity Snow
1788134630 32.22° C 42% 1012.1 hPa 0 mm - 274 W/m² -
1788134328 32.22° C 41% 1012 hPa 0 mm - 95 W/m² -
1788134022 32.78° C 40% 1012 hPa 0 mm - 56 W/m² -
1788133718 33.33° C 37% 1012.2 hPa 0 mm - 93 W/m² -
1788133414 32.78° C 39% 1011.9 hPa 0 mm - 82 W/m² -
1788133110 32.22° C 39% 1012.1 hPa 0 mm - 66 W/m² -
1788132805 32.78° C 39% 1011.9 hPa 0 mm - 68 W/m² -
1788132501 33.33° C 37% 1012 hPa 0 mm - 52 W/m² -
1788132196 33.89° C 37% 1012.2 hPa 0 mm - 282 W/m² -
1788131892 33.89° C 37% 1012.2 hPa 0 mm - 43 W/m² -
1788131587 33.33° C 38% 1012.3 hPa 0 mm - 43 W/m² -
1788131287 33.33° C 39% 1012.3 hPa 0 mm - 75 W/m² -
1788130982 33.33° C 39% 1012.3 hPa 0 mm - 44 W/m² -
1788130682 33.89° C 39% 1012.2 hPa 0 mm - 46 W/m² -
1788130377 33.33° C 40% 1012.5 hPa 0 mm - 45 W/m² -
1788130076 33.89° C 39% 1012.4 hPa 0 mm - 67 W/m² -
1788129771 33.33° C 40% 1012.5 hPa 0 mm - 442 W/m² -
1788129468 33.33° C 40% 1012.6 hPa 0 mm - 143 W/m² -
1788129164 33.33° C 40% 1012.4 hPa 0 mm - 159 W/m² -
1788128858 33.33° C 40% 1012.6 hPa 0 mm - 48 W/m² -
1788128553 33.33° C 40% 1012.8 hPa 0 mm - 51 W/m² -
1788128249 33.33° C 40% 1012.9 hPa 0 mm - 53 W/m² -
1788127946 33.33° C 40% 1013 hPa 0 mm - 182 W/m² -
1788127641 33.33° C 41% 1013.1 hPa 0 mm - 126 W/m² -
1788127339 33.33° C 40% 1013.2 hPa 0 mm - 58 W/m² -

* Rain latest hour (hover to see other rain measurements)
** Current wind speed in m/s (hover to see current wind gust speed)